Terug naar catalogus

CXO

ActiefWetenschapHEO
NORAD 25867·PAYLOAD·🇺🇸 United States

Gelanceerd Jul 23, 1999 vanaf Cape Canaveral Space Force Station

Loading…

Volgende Passages (komende 24 uur)

TLE

VersSource: Space-Track

Epoch: Sep 16, 2026, 06:57 UTC

1 25867U 99040B   26259.29000158  .00000789  00000-0  00000-0 0  9993
2 25867  57.4112 114.2820 7693036 309.4077   0.3912  0.37803042 17664

Volg CXO in realtime met AllMySat

Download on the App Store